カタログに戻る

INTELSAT 2-F1

運用中通信HEO
NORAD 2514·PAYLOAD· XX

打ち上げ Oct 26, 1966 から Cape Canaveral Space Force Station

Loading…

次のパス (今後24時間)

TLE

最新Source: Space-Track

元期: Sep 14, 2026, 09:19 UTC

1 02514U 66096A   26257.38827849 -.00000221  00000-0  00000-0 0  9996
2 02514  18.3078  38.9944 6388519 211.6302  85.5725  2.00314972 96604

AllMySatでINTELSAT 2-F1をリアルタイム追跡

Download on the App Store